Triuchirapalli, India

5:12 AM IST on September 21, 2019 (GMT +0530)
Tiruchirappalli

Weather History for VOTR - July, 2019

Change the Weather History Date:

Sunday, July 28, 2019

  Actual Average Record
Temperature  
Mean Temperature 84 °F -  
Max Temperature 86 °F 92 °F 103 °F (2017)
Min Temperature 82 °F 79 °F 75 °F (2016)
Cooling Degree Days 19    
Growing Degree Days 34 (Base 50)    
Moisture  
Dew Point 68 °F    
Average Humidity 58    
Maximum Humidity 66    
Minimum Humidity 47    
Precipitation  
Precipitation 0.00 in - - ()
Sea Level Pressure  
Sea Level Pressure 29.71 in    
Wind  
Wind Speed 9 mph ()    
Max Wind Speed 16 mph    
Max Gust Speed 22 mph    
Visibility 3.5 miles    
Events      
Averages and records for this station are not official NWS values.
T = Trace of Precipitation, MM = Missing Value Source: Averaged Metar Reports

Daily Weather History Graph

Daily Weather History Graph

Search for Another Location

Airport or City:

Astronomy

Jul. 28, 2019 Rise Set
Actual Time 6:02 AM IST 6:40 PM IST
Civil Twilight 5:40 AM IST 7:02 PM IST
Nautical Twilight 5:14 AM IST 7:28 PM IST
Astronomical Twilight 4:47 AM IST 7:55 PM IST
Moon 2:06 AM IST (7/28) 3:03 PM IST (7/28)
Length of Visible Light 13h 22m
Length of Day
12h 37m
Waning Crescent, 19% of the Moon is Illuminated
Jul 28
Waning Crescent
Aug 1
New
Aug 7
First Quarter
Aug 15
Full
Aug 23
Last Quarter

Hourly Weather History & Observations

Time (IST) Temp. Heat Index Dew Point Humidity Pressure Visibility Wind Dir Wind Speed Gust Speed Precip Events Conditions
12:00 AM 86.0 °F 89.4 °F 68.0 °F 55% 29.74 in 3.7 mi West 6.9 mph - N/A   Scattered Clouds
12:30 AM 86.0 °F 89.4 °F 68.0 °F 55% 29.74 in 3.7 mi West 9.2 mph - N/A   Scattered Clouds
1:00 AM 86.0 °F 89.4 °F 68.0 °F 55% 29.71 in 3.7 mi West 10.4 mph - N/A   Scattered Clouds
1:30 AM 86.0 °F 89.4 °F 68.0 °F 55% 29.71 in 3.7 mi West 11.5 mph - N/A   Scattered Clouds
2:00 AM 86.0 °F 89.4 °F 68.0 °F 55% 29.68 in 3.7 mi West 11.5 mph - N/A   Scattered Clouds
2:30 AM 85 °F - 68 °F 47% 29.68 in 2 mi West 16.1 mph - -   Haze
2:30 AM 84.2 °F 87.3 °F 68.0 °F 58% 29.68 in 3.7 mi West 10.4 mph 21.9 mph N/A   Scattered Clouds
3:00 AM 84.2 °F 87.3 °F 68.0 °F 58% 29.68 in 3.7 mi West 9.2 mph 20.7 mph N/A   Scattered Clouds
3:30 AM 84.2 °F 87.3 °F 68.0 °F 58% 29.68 in 3.7 mi West 9.2 mph 20.7 mph N/A   Scattered Clouds
4:00 AM 84.2 °F 87.3 °F 68.0 °F 58% 29.68 in 3.7 mi West 11.5 mph - N/A   Scattered Clouds
4:30 AM 84.2 °F 87.3 °F 68.0 °F 58% 29.68 in 3.7 mi West 9.2 mph 20.7 mph N/A   Scattered Clouds
5:00 AM 84.2 °F 87.3 °F 68.0 °F 58% 29.68 in 3.7 mi West 9.2 mph 20.7 mph N/A   Scattered Clouds
5:30 AM 83 °F - 68 °F 51% 29.69 in 2 mi West 13.8 mph - -   Haze
6:00 AM 82.4 °F 85.4 °F 68.0 °F 62% 29.71 in 3.7 mi West 9.2 mph 20.7 mph N/A   Scattered Clouds
6:30 AM 82.4 °F 85.4 °F 68.0 °F 62% 29.71 in 3.7 mi West 9.2 mph 20.7 mph N/A   Scattered Clouds
7:00 AM 84.2 °F 87.3 °F 68.0 °F 58% 29.74 in 3.7 mi West 13.8 mph - N/A   Scattered Clouds
7:30 AM 84.2 °F 89.6 °F 71.6 °F 66% 29.74 in 3.7 mi West 13.8 mph - N/A   Scattered Clouds
8:00 AM 84.2 °F 89.6 °F 71.6 °F 66% 29.74 in 3.7 mi West 12.7 mph - N/A   Scattered Clouds
8:30 AM 86.0 °F 90.4 °F 69.8 °F 58% 29.74 in 3.7 mi West 12.7 mph - N/A   Scattered Clouds